Total_Precipitation_Accumulation
0.02 0.03 0.10 0.09 0.09 0.08 0.07 0.08 0.10 0.11 0.10 0.09 0.09 0.08 0.06 0.06 0.05 0.06 0.09 0.09 0.10 0.13 0.16 0.17 0.20 0.24 0.25 0.25 0.31 0.38 0.44 0.33 0.28 0.26 0.20 0.21 0.26 0.21 0.21 0.27 0.45 0.57 0.29
0.01 0.02 0.09 0.10 0.07 0.06 0.06 0.08 0.09 0.10 0.11 0.10 0.09 0.07 0.05 0.04 0.04 0.04 0.05 0.05 0.05 0.07 0.13 0.16 0.20 0.25 0.26 0.26 0.33 0.40 0.40 0.36 0.35 0.35 0.30 0.24 0.23 0.19 0.15 0.19 0.36 0.48 0.34
0.01 0.02 0.05 0.09 0.08 0.07 0.07 0.08 0.09 0.13 0.13 0.09 0.08 0.08 0.06 0.04 0.04 0.04 0.03 0.03 0.02 0.05 0.08 0.12 0.19 0.24 0.28 0.33 0.35 0.36 0.34 0.36 0.39 0.42 0.50 0.56 0.28 0.21 0.21 0.19 0.27 0.29 0.30
0.01 0.01 0.04 0.09 0.11 0.14 0.13 0.13 0.14 0.15 0.16 0.12 0.09 0.09 0.06 0.04 0.04 0.05 0.04 0.03 0.03 0.04 0.06 0.09 0.13 0.20 0.27 0.34 0.37 0.35 0.31 0.34 0.38 0.38 0.45 0.57 0.43 0.28 0.33 0.32 0.36 0.28 0.27
0.02 0.04 0.09 0.16 0.18 0.22 0.20 0.19 0.19 0.18 0.18 0.15 0.11 0.10 0.07 0.06 0.04 0.04 0.04 0.04 0.04 0.04 0.04 0.07 0.10 0.17 0.24 0.25 0.26 0.27 0.28 0.36 0.45 0.32 0.32 0.44 0.53 0.39 0.33 0.41 0.42 0.34 0.28
0.06 0.09 0.16 0.23 0.24 0.29 0.29 0.28 0.31 0.25 0.22 0.17 0.13 0.11 0.10 0.08 0.04 0.03 0.04 0.09 0.05 0.03 0.03 0.06 0.10 0.17 0.22 0.25 0.24 0.26 0.35 0.41 0.36 0.36 0.36 0.49 0.60 0.44 0.39 0.43 0.40 0.48 0.38
0.20 0.19 0.23 0.30 0.33 0.38 0.36 0.32 0.39 0.38 0.36 0.25 0.16 0.13 0.12 0.08 0.04 0.03 0.07 0.09 0.08 0.05 0.02 0.03 0.06 0.11 0.16 0.22 0.23 0.26 0.36 0.35 0.42 0.46 0.40 0.47 0.42 0.43 0.42 0.42 0.44 0.58 0.52
0.47 0.39 0.32 0.37 0.44 0.48 0.46 0.48 0.59 0.58 0.49 0.33 0.20 0.20 0.17 0.14 0.08 0.05 0.07 0.07 0.09 0.09 0.04 0.02 0.03 0.06 0.08 0.14 0.17 0.24 0.35 0.40 0.42 0.39 0.27 0.31 0.38 0.40 0.35 0.38 0.45 0.57 0.60
0.79 0.65 0.51 0.49 0.53 0.61 0.66 0.69 0.79 0.81 0.71 0.51 0.33 0.30 0.26 0.20 0.13 0.08 0.07 0.06 0.05 0.04 0.03 0.03 0.02 0.03 0.04 0.08 0.12 0.20 0.32 0.34 0.37 0.33 0.16 0.17 0.32 0.27 0.24 0.28 0.37 0.48 0.56
0.88 0.83 0.76 0.70 0.70 0.77 0.81 0.91 1.00 1.09 1.16 0.89 0.58 0.45 0.37 0.28 0.19 0.14 0.10 0.08 0.06 0.04 0.03 0.01 0.01 0.01 0.04 0.07 0.10 0.15 0.19 0.22 0.32 0.23 0.14 0.14 0.26 0.18 0.15 0.19 0.27 0.28 0.34
0.65 0.70 0.75 0.79 0.84 0.84 0.79 0.84 1.05 1.21 1.36 1.09 0.71 0.66 0.54 0.35 0.31 0.25 0.17 0.14 0.12 0.10 0.07 0.04 0.01 0.01 0.02 0.05 0.08 0.10 0.10 0.12 0.22 0.20 0.12 0.13 0.18 0.12 0.08 0.08 0.10 0.14 0.18
0.53 0.50 0.53 0.55 0.64 0.70 0.69 0.88 1.14 1.19 1.30 1.03 0.83 0.83 0.74 0.73 0.63 0.41 0.31 0.29 0.25 0.21 0.14 0.10 0.06 0.03 0.02 0.02 0.03 0.03 0.04 0.08 0.13 0.14 0.09 0.12 0.14 0.08 0.03 0.01 0.02 0.04 0.06
0.42 0.40 0.39 0.41 0.44 0.53 0.72 0.95 1.15 1.21 1.25 1.27 1.28 1.11 1.05 0.97 0.75 0.50 0.41 0.38 0.32 0.28 0.23 0.19 0.15 0.10 0.06 0.02 0.01 0.01 0.01 0.05 0.10 0.08 0.06 0.10 0.14 0.08 0.03 0.01 0.01 0.02 0.03
0.46 0.44 0.38 0.30 0.31 0.38 0.52 0.75 1.01 1.08 1.12 1.19 1.17 0.95 1.00 0.97 0.76 0.63 0.63 0.61 0.48 0.39 0.40 0.33 0.24 0.18 0.13 0.05 0.02 0.00 0.01 0.02 0.05 0.04 0.06 0.07 0.13 0.10 0.06 0.03 0.01 0.02 0.02
0.53 0.61 0.59 0.43 0.37 0.39 0.45 0.50 0.64 0.74 0.84 1.10 1.16 0.88 0.84 0.81 0.83 0.81 0.66 0.70 0.66 0.62 0.55 0.45 0.34 0.25 0.21 0.12 0.05 0.01 0.00 0.01 0.02 0.02 0.04 0.05 0.08 0.10 0.09 0.06 0.05 0.03 0.02
0.36 0.49 0.57 0.55 0.54 0.52 0.45 0.39 0.40 0.46 0.58 0.71 0.72 0.66 0.68 0.68 0.75 0.86 0.72 0.63 0.61 0.74 0.76 0.61 0.47 0.40 0.31 0.19 0.09 0.03 0.01 0.01 0.01 0.01 0.03 0.05 0.04 0.05 0.08 0.06 0.06 0.05 0.05
0.26 0.32 0.42 0.50 0.56 0.58 0.59 0.58 0.47 0.46 0.51 0.52 0.52 0.58 0.64 0.62 0.72 0.84 0.74 0.57 0.49 0.59 0.72 0.75 0.65 0.48 0.34 0.23 0.14 0.07 0.03 0.01 0.01 0.01 0.01 0.05 0.07 0.03 0.05 0.08 0.09 0.08 0.10
0.25 0.25 0.31 0.36 0.43 0.52 0.61 0.68 0.66 0.61 0.55 0.50 0.46 0.43 0.47 0.47 0.53 0.69 0.70 0.56 0.49 0.59 0.71 0.80 0.80 0.67 0.43 0.29 0.19 0.12 0.08 0.05 0.02 0.02 0.02 0.02 0.05 0.06 0.07 0.08 0.12 0.14 0.14
0.24 0.23 0.24 0.28 0.32 0.40 0.50 0.57 0.57 0.56 0.51 0.49 0.49 0.38 0.36 0.38 0.47 0.64 0.74 0.72 0.70 0.70 0.75 0.79 0.84 0.77 0.62 0.43 0.26 0.17 0.11 0.07 0.04 0.03 0.02 0.01 0.01 0.03 0.07 0.07 0.06 0.09 0.14
0.24 0.24 0.24 0.26 0.27 0.31 0.35 0.43 0.47 0.42 0.41 0.46 0.45 0.43 0.47 0.53 0.58 0.74 0.88 0.96 1.02 0.96 0.92 1.01 1.13 1.00 0.77 0.61 0.46 0.26 0.15 0.09 0.05 0.04 0.03 0.03 0.02 0.01 0.01 0.02 0.04 0.04 0.05
0.18 0.17 0.19 0.24 0.26 0.24 0.23 0.28 0.32 0.32 0.39 0.47 0.54 0.60 0.64 0.67 0.74 0.90 1.07 1.27 1.34 1.15 1.10 1.21 1.35 1.37 1.07 0.79 0.68 0.51 0.33 0.17 0.10 0.08 0.06 0.05 0.04 0.03 0.03 0.01 0.03 0.07 0.10
0.05 0.09 0.13 0.15 0.17 0.17 0.18 0.23 0.31 0.37 0.42 0.53 0.68 0.78 0.81 0.80 0.85 0.90 1.06 1.20 1.23 1.21 1.21 1.21 1.30 1.48 1.33 1.04 0.98 1.07 0.82 0.55 0.25 0.12 0.10 0.08 0.07 0.06 0.06 0.03 0.01 0.02 0.06
0.02 0.03 0.06 0.11 0.14 0.14 0.22 0.41 0.67 0.91 0.98 0.99 1.00 1.13 1.23 1.19 1.12 1.10 1.12 1.23 1.28 1.34 1.27 1.23 1.22 1.35 1.37 1.19 1.10 1.30 1.08 0.82 0.67 0.36 0.21 0.21 0.19 0.15 0.10 0.06 0.04 0.02 0.01
0.03 0.03 0.04 0.09 0.15 0.18 0.35 0.68 1.07 1.39 1.47 1.47 1.58 1.60 1.66 1.58 1.44 1.41 1.42 1.48 1.39 1.32 1.22 1.19 1.17 1.21 1.40 1.36 1.24 1.10 0.97 0.83 0.92 0.77 0.47 0.33 0.32 0.28 0.23 0.16 0.10 0.07 0.05
0.10 0.11 0.13 0.20 0.34 0.50 0.65 0.83 1.12 1.32 1.43 1.57 1.71 1.85 1.96 2.07 2.04 1.96 1.89 1.72 1.49 1.36 1.32 1.34 1.29 1.29 1.34 1.33 1.26 1.15 1.10 0.98 0.78 0.76 0.76 0.57 0.43 0.36 0.33 0.28 0.24 0.17 0.12
0.24 0.27 0.31 0.41 0.51 0.58 0.70 0.84 0.98 1.07 1.23 1.43 1.58 1.74 1.87 1.98 2.00 1.95 1.82 1.59 1.39 1.28 1.32 1.39 1.38 1.37 1.34 1.33 1.24 1.09 1.02 0.95 0.83 0.84 0.76 0.75 0.75 0.49 0.38 0.33 0.31 0.27 0.22